Location: ????????
(55.6189°N, 38.3031°E)
Time: 22:59:02
(UTC+00:00)

Cosmos 1937 Rocket - Pass Details

Date: 15 November 2019
Orbit: 747 x 780 km, 74.0° (Epoch: 08 December)

Event Time Altitude Azimuth Distance (km) Brightness Sun altitude
Rises 03:24:16 0° 212° (SSW) 3,190 6.5 -13.3°
Reaches altitude 10° 03:26:38 10° 214° (SW) 2,267 5.7 -13.0°
Maximum altitude 03:31:46 74° 300° (WNW) 784 3.4 -12.3°
Drops below altitude 10° 03:36:55 10° 26° (NNE) 2,278 6.1 -11.6°
Sets 03:39:18 0° 28° (NNE) 3,208 6.9 -11.2°
